Location: Bodest
(46.3000°N, 22.5667°E)
Time: 20:46:10
(UTC+00:00)

Timation 2 Rocket - Pass Details

Date: 16 October 2021
Orbit: 904 x 1077 km, 70.0° (Epoch: 29 November)

Event Time Altitude Azimuth Distance (km) Brightness Sun altitude
Rises 16:01:31 0° 332° (NNW) 3,883 7.4 -4.2°
Reaches altitude 10° 16:04:12 10° 335° (NNW) 2,925 6.7 -4.7°
Maximum altitude 16:11:06 69° 59° (ENE) 1,141 4.2 -5.9°
Drops below altitude 10° 16:17:49 10° 142° (SE) 2,853 6.1 -7.0°
Sets 16:20:24 0° 145° (SE) 3,782 6.8 -7.5°
